Wasilla, AK

12:53 PM AKST on January 17, 2017 (GMT -0900)
Wasilla

Weather History for PAWS - July, 2013

Change the Weather History Date:

Saturday, July 20, 2013

  Actual Average Record
Temperature  
Mean Temperature 61 °F -  
Max Temperature 69 °F 70 °F 81 °F (1989)
Min Temperature 53 °F 49 °F 39 °F (1964)
Degree Days  
Heating Degree Days 4    
Growing Degree Days 11 (Base 50)    
Moisture  
Dew Point 50 °F    
Average Humidity 69    
Maximum Humidity 88    
Minimum Humidity 40    
Precipitation  
Precipitation 0.00 in - - ()
Sea Level Pressure  
Sea Level Pressure 30.09 in    
Wind  
Wind Speed 3 mph (SW)    
Max Wind Speed 13 mph    
Max Gust Speed 17 mph    
Visibility 10 miles    
Events      
Averages and records for this station are not official NWS values.
T = Trace of Precipitation, MM = Missing Value Source: NWS Daily Summary

Daily Weather History Graph

Daily Weather History Graph

Search for Another Location

Airport or City:

Trip Planner

Search our weather history database for the weather conditions in past years. The results will help you decide how hot, cold, wet, or windy it might be!

Date:

Astronomy

Jul. 20, 2013 Rise Set
Actual Time 4:58 AM AKDT 11:08 PM AKDT
Civil Twilight 3:32 AM AKDT 12:33 AM AKDT
Nautical Twilight Sun does not rise Sun does not rise
Astronomical Twilight Sun does not rise Sun does not rise
Moon 9:12 PM AKDT (7/20) 2:53 AM AKDT (7/20)
Length of Visible Light 21h 01m
Length of Day
18h 10m
Waxing Gibbous, 94% of the Moon is Illuminated
Jul 20
Waxing Gibbous
Jul 22
Full
Jul 29
Last Quarter
Aug 6
New
Aug 14
First Quarter

Hourly Weather History & Observations

Time (AKDT) Temp. Dew Point Humidity Pressure Visibility Wind Dir Wind Speed Gust Speed Precip Events Conditions
12:16 AM 60.8 °F 53.6 °F 77% 30.13 in 10.0 mi Calm Calm - N/A   Overcast
12:36 AM 57.2 °F 53.6 °F 88% 30.13 in 10.0 mi Calm Calm - N/A   Overcast
12:56 AM 59.0 °F 51.8 °F 77% 30.12 in 10.0 mi Calm Calm - N/A   Overcast
1:16 AM 60.8 °F 50.0 °F 68% 30.13 in 10.0 mi NW 6.9 mph - N/A   Overcast
1:36 AM 59.0 °F 51.8 °F 77% 30.12 in 10.0 mi Calm Calm - N/A   Overcast
1:56 AM 57.2 °F 51.8 °F 82% 30.13 in 10.0 mi Calm Calm - N/A   Mostly Cloudy
2:16 AM 57.2 °F 51.8 °F 82% 30.13 in 10.0 mi Calm Calm - N/A   Mostly Cloudy
2:36 AM 55.4 °F 51.8 °F 88% 30.13 in 10.0 mi Calm Calm - N/A   Overcast
2:56 AM 57.2 °F 51.8 °F 82% 30.12 in 10.0 mi Calm Calm - N/A   Mostly Cloudy
3:16 AM 55.4 °F 50.0 °F 82% 30.12 in 10.0 mi Calm Calm - N/A   Mostly Cloudy
3:36 AM 55.4 °F 51.8 °F 88% 30.12 in 10.0 mi Calm Calm - N/A   Mostly Cloudy
3:56 AM 55.4 °F 51.8 °F 88% 30.12 in 10.0 mi Calm Calm - N/A   Mostly Cloudy
4:16 AM 53.6 °F 50.0 °F 88% 30.12 in 10.0 mi SW 3.5 mph - N/A   Overcast
4:36 AM 55.4 °F 50.0 °F 82% 30.12 in 10.0 mi Calm Calm - N/A   Overcast
4:56 AM 55.4 °F 48.2 °F 77% 30.12 in 10.0 mi South 3.5 mph - N/A   Overcast
5:16 AM 55.4 °F 50.0 °F 82% 30.12 in 10.0 mi South 4.6 mph - N/A   Mostly Cloudy
5:36 AM 55.4 °F 50.0 °F 82% 30.12 in 10.0 mi Calm Calm - N/A   Overcast
5:56 AM 55.4 °F 50.0 °F 82% 30.12 in 10.0 mi Calm Calm - N/A   Overcast
6:16 AM 55.4 °F 50.0 °F 82% 30.12 in 10.0 mi Calm Calm - N/A   Scattered Clouds
6:36 AM 55.4 °F 51.8 °F 88% 30.11 in 10.0 mi Calm Calm - N/A   Clear
6:56 AM 55.4 °F 50.0 °F 82% 30.12 in 10.0 mi Calm Calm - N/A   Mostly Cloudy
7:16 AM 55.4 °F 50.0 °F 82% 30.11 in 10.0 mi Calm Calm - N/A   Mostly Cloudy
7:36 AM 55.4 °F 51.8 °F 88% 30.11 in 10.0 mi NNW 3.5 mph - N/A   Clear
7:56 AM 57.2 °F 51.8 °F 82% 30.11 in 10.0 mi WNW 4.6 mph - N/A   Clear
8:16 AM 57.2 °F 51.8 °F 82% 30.12 in 10.0 mi WSW 4.6 mph - N/A   Partly Cloudy
8:36 AM 57.2 °F 51.8 °F 82% 30.12 in 10.0 mi WSW 5.8 mph - N/A   Mostly Cloudy
8:56 AM 57.2 °F 51.8 °F 82% 30.12 in 10.0 mi SW 6.9 mph - N/A   Mostly Cloudy
9:16 AM 59.0 °F 51.8 °F 77% 30.13 in 10.0 mi WSW 6.9 mph - N/A   Mostly Cloudy
9:36 AM 59.0 °F 51.8 °F 77% 30.12 in 10.0 mi SW 6.9 mph - N/A   Overcast
9:56 AM 59.0 °F 51.8 °F 77% 30.12 in 10.0 mi SW 8.1 mph - N/A   Overcast
10:16 AM 60.8 °F 53.6 °F 77% 30.11 in 10.0 mi SSW 6.9 mph - N/A   Mostly Cloudy
10:36 AM 60.8 °F 51.8 °F 72% 30.11 in 10.0 mi SSW 9.2 mph - N/A   Overcast
10:56 AM 60.8 °F 53.6 °F 77% 30.11 in 10.0 mi South 5.8 mph - N/A   Mostly Cloudy
11:16 AM 60.8 °F 51.8 °F 72% 30.11 in 10.0 mi South 11.5 mph 16.1 mph N/A   Mostly Cloudy
11:36 AM 59.0 °F 51.8 °F 77% 30.11 in 10.0 mi SSW 10.4 mph - N/A   Scattered Clouds
11:56 AM 59.0 °F 50.0 °F 72% 30.11 in 10.0 mi SSW 6.9 mph - N/A   Clear
12:16 PM 60.8 °F 50.0 °F 68% 30.11 in 10.0 mi SW 6.9 mph - N/A   Clear
12:36 PM 60.8 °F 50.0 °F 68% 30.11 in 10.0 mi SSW 6.9 mph - N/A   Clear
12:56 PM 64.4 °F 48.2 °F 56% 30.11 in 10.0 mi SW 6.9 mph - N/A   Clear
1:16 PM 66.2 °F 48.2 °F 52% 30.10 in 10.0 mi West 6.9 mph - N/A   Clear
1:36 PM 66.2 °F 48.2 °F 52% 30.10 in 10.0 mi SW 8.1 mph - N/A   Clear
1:56 PM 66.2 °F 48.2 °F 52% 30.09 in 10.0 mi West 5.8 mph - N/A   Scattered Clouds
2:16 PM 69.8 °F 46.4 °F 43% 30.09 in 10.0 mi NW 8.1 mph - N/A   Mostly Cloudy
2:36 PM 69.8 °F 44.6 °F 40% 30.09 in 10.0 mi West 5.8 mph - N/A   Overcast
2:56 PM 68.0 °F 44.6 °F 43% 30.09 in 10.0 mi WNW 10.4 mph - N/A   Overcast
3:16 PM 62.6 °F 50.0 °F 63% 30.09 in 10.0 mi South 5.8 mph - N/A   Mostly Cloudy
3:36 PM 64.4 °F 53.6 °F 68% 30.09 in 10.0 mi SSW 10.4 mph - N/A   Overcast
3:56 PM 64.4 °F 53.6 °F 68% 30.09 in 10.0 mi SW 8.1 mph 16.1 mph N/A   Partly Cloudy
4:16 PM 64.4 °F 53.6 °F 68% 30.08 in 10.0 mi SSW 12.7 mph - N/A   Partly Cloudy
4:36 PM 64.4 °F 51.8 °F 64% 30.07 in 10.0 mi SSW 8.1 mph - N/A   Scattered Clouds
4:56 PM 66.2 °F 53.6 °F 64% 30.07 in 10.0 mi SSW 8.1 mph - N/A   Clear
5:16 PM 66.2 °F 53.6 °F 64% 30.06 in 10.0 mi SW 8.1 mph - N/A   Clear
5:36 PM 66.2 °F 51.8 °F 60% 30.06 in 10.0 mi South 8.1 mph - N/A   Clear
5:56 PM 66.2 °F 51.8 °F 60% 30.06 in 10.0 mi SSW 8.1 mph - N/A   Clear
6:16 PM 66.2 °F 51.8 °F 60% 30.06 in 10.0 mi SSW 9.2 mph 17.3 mph N/A   Clear
6:36 PM 66.2 °F 51.8 °F 60% 30.06 in 10.0 mi SSW 10.4 mph - N/A   Partly Cloudy
6:56 PM 66.2 °F 48.2 °F 52% 30.05 in 10.0 mi SSW 8.1 mph - N/A   Scattered Clouds
7:16 PM 66.2 °F 48.2 °F 52% 30.05 in 10.0 mi SSW 9.2 mph - N/A   Partly Cloudy
7:36 PM 64.4 °F 46.4 °F 52% 30.05 in 10.0 mi SSW 9.2 mph - N/A   Clear
7:56 PM 66.2 °F 48.2 °F 52% 30.05 in 10.0 mi SSW 8.1 mph - N/A   Mostly Cloudy
8:16 PM 64.4 °F 46.4 °F 52% 30.04 in 10.0 mi SSW 10.4 mph - N/A   Overcast
8:36 PM 66.2 °F 48.2 °F 52% 30.04 in 10.0 mi SSW 5.8 mph - N/A   Mostly Cloudy
8:56 PM 66.2 °F 48.2 °F 52% 30.04 in 10.0 mi NE 4.6 mph - N/A   Mostly Cloudy
9:16 PM 66.2 °F 46.4 °F 49% 30.05 in 10.0 mi SE 3.5 mph - N/A   Overcast
9:36 PM 64.4 °F 48.2 °F 56% 30.05 in 10.0 mi Calm Calm - N/A   Overcast
9:56 PM 64.4 °F 48.2 °F 56% 30.05 in 10.0 mi Calm Calm - N/A   Overcast
10:16 PM 64.4 °F 48.2 °F 56% 30.04 in 10.0 mi SW 3.5 mph - N/A   Overcast
10:36 PM 62.6 °F 48.2 °F 59% 30.04 in 10.0 mi SSW 3.5 mph - N/A   Mostly Cloudy
10:56 PM 62.6 °F 46.4 °F 55% 30.04 in 10.0 mi WSW 4.6 mph - N/A   Clear
11:16 PM 60.8 °F 46.4 °F 59% 30.04 in 10.0 mi WSW 3.5 mph - N/A   Clear
11:36 PM 57.2 °F 46.4 °F 67% 30.05 in 10.0 mi Calm Calm - N/A   Clear
11:56 PM 59.0 °F 44.6 °F 59% 30.05 in 10.0 mi NNW 4.6 mph - N/A   Clear